This is the latest recevied weather packets stored in our database for station/object vk4zu-13. If no packets are shown the sender has not sent any weather packets the latest 10 day(s).
| Time | Temp. | Humidity | Pressure | Rain* | Wind** | Luminosity | Snow |
|---|---|---|---|---|---|---|---|
| 1777869505 | 27.22° C | 64% | 1016.6 hPa | 0 mm | - | 480 W/m² | - |
| 1777869432 | 27.22° C | 64% | 1016.6 hPa | 0 mm | - | 482 W/m² | - |
| 1777869364 | 27.22° C | 65% | 1016.5 hPa | 0 mm | - | 483 W/m² | - |
| 1777869295 | 26.67° C | 66% | 1016.6 hPa | 0 mm | - | 489 W/m² | - |
| 1777869225 | 26.67° C | 66% | 1016.5 hPa | 0 mm | - | 492 W/m² | - |
| 1777869155 | 26.67° C | 65% | 1016.6 hPa | 0 mm | - | 496 W/m² | - |
| 1777869089 | 26.67° C | 65% | 1016.6 hPa | 0 mm | - | 496 W/m² | - |
| 1777869028 | 26.67° C | 65% | 1016.6 hPa | 0 mm | - | 499 W/m² | - |
| 1777868966 | 26.67° C | 64% | 1016.6 hPa | 0 mm | - | 503 W/m² | - |
| 1777868905 | 26.67° C | 64% | 1016.6 hPa | 0 mm | - | 506 W/m² | - |
| 1777868843 | 26.67° C | 67% | 1016.7 hPa | 0 mm | - | 508 W/m² | - |
| 1777868785 | 26.67° C | 65% | 1016.7 hPa | 0 mm | - | 506 W/m² | - |
| 1777868729 | 26.67° C | 64% | 1016.7 hPa | 0 mm | - | 506 W/m² | - |
| 1777868660 | 26.67° C | 63% | 1016.6 hPa | 0 mm | - | 517 W/m² | - |
| 1777868607 | 26.67° C | 64% | 1016.7 hPa | 0 mm | - | 517 W/m² | - |
| 1777868538 | 26.67° C | 67% | 1016.7 hPa | 0 mm | - | 524 W/m² | - |
| 1777868474 | 26.11° C | 65% | 1016.7 hPa | 0 mm | - | 524 W/m² | - |
| 1777868412 | 26.11° C | 67% | 1016.6 hPa | 0 mm | - | 522 W/m² | - |
| 1777868348 | 26.11° C | 64% | 1016.7 hPa | 0 mm | - | 482 W/m² | - |
| 1777868286 | 26.67° C | 63% | 1016.7 hPa | 0 mm | - | 529 W/m² | - |
| 1777868228 | 26.67° C | 64% | 1016.7 hPa | 0 mm | - | 531 W/m² | - |
| 1777868161 | 26.67° C | 66% | 1016.7 hPa | 0 mm | - | 533 W/m² | - |
| 1777868104 | 26.67° C | 65% | 1016.7 hPa | 0 mm | - | 541 W/m² | - |
| 1777868042 | 26.67° C | 65% | 1016.6 hPa | 0 mm | - | 545 W/m² | - |
| 1777867942 | 26.67° C | 64% | 1016.8 hPa | 0 mm | - | 548 W/m² | - |
* Rain latest hour (hover to see other rain measurements)
** Current wind speed in m/s (hover to see current wind gust speed)